Orbital Elements at Epoch 2459200.5 (2020-Dec-17.0) TDB
Reference: JPL 16 (heliocentric ecliptic J2000)
Element | Value | Uncertainty (1-sigma) | Units |
e | .5944609102412398 | 4.2292e-07 | |
a | .7011472556516166 | 2.0708e-09 | au |
q | .2843426198438093 | 2.9719e-07 | au |
i | 16.40533919390871 | 4.8139e-05 | deg |
node | 22.88013354981759 | 1.4972e-05 | deg |
peri | 200.6645466806515 | 2.4721e-05 | deg |
M | 206.3095844276502 | 0.00011051 | deg |
tp | 2459292.049624803551 (2021-Mar-18.54962480) | 6.5901e-05 | TDB |
period | 214.4432026326549 0.59 | 9.5001e-07 2.601e-09 | d yr |
n | 1.678766198137259 | 7.4371e-09 | deg/d |
Q | 1.117951891459424 | 3.3018e-09 | au |
|
| | Orbit Determination Parameters
Additional Information
|